Weather in Nur-Sultan

Kazakhstan     51°07′41″N   71°25′49″E
temp.,
°C
wind,
m/s
gust,
m/s
humid.,
%
clouds,
%
prec.,
mm/h
press.,
hPa
HPBL,
m
16 april, fri
fri1600:00+9e22590 0.0 102310
03:00+8ese22650 0.0 102110
06:00+7sse22670 0.0 102110
09:00+10s22570 0.0 1020134
12:00+15s22425 0.0 1019586
15:00+17wsw223391 0.0 10171392
18:00+17nnw423571 0.0 10161462
21:00+12n455786 0.0 101782
17 april, sat
sat1700:00+9nne7137427 0.0 1018342
03:00+7ne81192100 0.0 1020469
06:00+6ne6890100 0.0 1021586
09:00+6ne678196 0.0 1023456
12:00+9ene446737 0.0 1023755
15:00+11ne435529 0.0 10221123
18:00+11ne32547 0.0 10221029
21:00+8nne336831 0.0 102262
18 april, sun
sun1800:00+8ene3371100 0.0 1021105
03:00+7nw117265 0.0 102026
06:00+5wnw22835 0.0 102011
09:00+8wsw357117 0.0 1018314
12:00+12w56525 0.0 10171049
15:00+14w7104320 0.0 10152002
18:00+11nw81172100 0.1 1015822
21:00+8nw5107194 0.0 1017750
19 april, mon
mon1900:00+2n8115432 0.0 1022785
03:00−3nne79665 0.0 1025777
06:00−5nne78585 0.0 1028804
09:00−3nne78525 0.0 1029949
12:000nne66405 0.0 10291294
15:00+1nne66300 0.0 10301596
18:00+1nne66315 0.0 10301693
21:00−2nne79411 0.0 10291074
20 april, tue
tue2000:00−4ne78414 0.0 10291161
03:00−4ne68420 0.0 10301329
06:00−5nne69470 0.0 10301302
09:00−4ne79385 0.0 10321363
12:00−2nne78325 0.0 10321673
15:000nne78315 0.0 10311927
18:000nne793191 0.0 10312116
21:00−3ne59435 0.0 1033418